| time (UTC) | temp F | wind direction | speed MPH | gust MPH | rain 1hr in | rain 24hr in | rain mn in | humidity % | barometer mb |
| 20260506153100 | 70 | 247 | 5.0 | 16.0 | 0.00 | 0.00 | 0.00 | 61 | 1008.9 |
| 20260506151600 | 71 | 205 | 4.0 | 15.0 | 0.00 | 0.00 | 0.00 | 59 | 1008.8 |
| 20260506150058 | 70 | 261 | 5.0 | 18.0 | 0.00 | 0.00 | 0.00 | 59 | 1008.9 |
| 20260506144607 | 70 | 0 | 5.0 | 16.0 | 0.00 | 0.00 | 0.00 | 59 | 1009.0 |
| 20260506143053 | 71 | 222 | 4.0 | 17.0 | 0.00 | 0.00 | 0.00 | 59 | 1009.0 |
| 20260506141553 | 71 | 215 | 3.0 | 19.0 | 0.00 | 0.00 | 0.00 | 59 | 1008.8 |
| 20260506140054 | 71 | 256 | 4.0 | 11.0 | 0.00 | 0.00 | 0.00 | 60 | 1008.9 |
| 20260506134555 | 71 | 261 | 3.0 | 14.0 | 0.00 | 0.00 | 0.00 | 61 | 1008.8 |
| 20260506133100 | 71 | 283 | 2.0 | 15.0 | 0.00 | 0.00 | 0.00 | 60 | 1008.8 |
| 20260506131557 | 71 | 207 | 6.0 | 16.0 | 0.00 | 0.00 | 0.00 | 61 | 1009.1 |
| 20260506130054 | 70 | 203 | 4.0 | 15.0 | 0.00 | 0.00 | 0.00 | 63 | 1009.2 |
| 20260506124551 | 69 | 225 | 6.0 | 17.0 | 0.00 | 0.00 | 0.00 | 64 | 1009.2 |
| 20260506123054 | 69 | 224 | 4.0 | 15.0 | 0.00 | 0.00 | 0.00 | 67 | 1009.0 |
| 20260506121553 | 67 | 273 | 2.0 | 13.0 | 0.00 | 0.00 | 0.00 | 69 | 1009.2 |
| 20260506120056 | 67 | 215 | 4.0 | 10.0 | 0.00 | 0.00 | 0.00 | 69 | 1009.2 |
| 20260506114558 | 66 | 232 | 3.0 | 15.0 | 0.00 | 0.00 | 0.00 | 69 | 1009.4 |
| 20260506113054 | 67 | 225 | 5.0 | 18.0 | 0.00 | 0.00 | 0.00 | 68 | 1009.4 |
| 20260506111557 | 66 | 144 | 3.0 | 14.0 | 0.00 | 0.00 | 0.00 | 70 | 1009.5 |
| 20260506110055 | 65 | 248 | 5.0 | 15.0 | 0.00 | 0.00 | 0.00 | 71 | 1009.4 |
| 20260506104559 | 65 | 181 | 5.0 | 12.0 | 0.00 | 0.00 | 0.00 | 72 | 1009.3 |
| 20260506103055 | 64 | 187 | 3.0 | 12.0 | 0.00 | 0.00 | 0.00 | 74 | 1009.3 |
| 20260506101601 | 64 | 0 | 2.0 | 9.0 | 0.00 | 0.00 | 0.00 | 75 | 1009.4 |
| 20260506100107 | 64 | 217 | 4.0 | 11.0 | 0.00 | 0.00 | 0.00 | 75 | 1009.2 |
| 20260506094615 | 64 | 211 | 1.0 | 15.0 | 0.00 | 0.00 | 0.00 | 75 | 1009.2 |
| 20260506093103 | 64 | 187 | 3.0 | 9.0 | 0.00 | 0.00 | 0.00 | 75 | 1009.0 |
| 20260506091604 | 64 | 184 | 3.0 | 10.0 | 0.00 | 0.00 | 0.00 | 75 | 1009.2 |
| 20260506084557 | 65 | 184 | 2.0 | 11.0 | 0.00 | 0.00 | 0.00 | 75 | 1009.5 |
| 20260506083103 | 65 | 0 | 2.0 | 8.0 | 0.00 | 0.00 | 0.00 | 75 | 1009.5 |
| 20260506081556 | 65 | 205 | 2.0 | 9.0 | 0.00 | 0.00 | 0.00 | 74 | 1009.6 |
| 20260506080109 | 65 | 0 | 2.0 | 7.0 | 0.00 | 0.00 | 0.00 | 74 | 1009.6 |
| 20260506073108 | 66 | 205 | 1.0 | 14.0 | 0.00 | 0.00 | 0.00 | 73 | 1009.5 |
| 20260506071552 | 66 | 223 | 4.0 | 11.0 | 0.00 | 0.00 | 0.00 | 72 | 1009.5 |
| 20260506061601 | 67 | 183 | 4.0 | 13.0 | 0.00 | 0.00 | 0.00 | 70 | 1009.6 |
| 20260506044553 | 68 | 261 | 3.0 | 12.0 | 0.00 | 0.00 | 0.00 | 66 | 1010.0 |
| 20260506043052 | 69 | 229 | 3.0 | 11.0 | 0.00 | 0.00 | 0.00 | 65 | 1010.0 |
| 20260506041556 | 69 | 223 | 2.0 | 11.0 | 0.00 | 0.00 | 0.00 | 64 | 1009.9 |
| 20260506040055 | 69 | 214 | 6.0 | 17.0 | 0.00 | 0.00 | 0.00 | 63 | 1009.9 |
| 20260506034554 | 69 | 175 | 5.0 | 12.0 | 0.00 | 0.00 | 0.00 | 63 | 1009.8 |
| 20260506033106 | 69 | 197 | 3.0 | 15.0 | 0.00 | 0.00 | 0.00 | 63 | 1009.9 |
| 20260506031555 | 69 | 219 | 4.0 | 13.0 | 0.00 | 0.00 | 0.00 | 62 | 1009.8 |
| 20260506030059 | 69 | 217 | 4.0 | 11.0 | 0.00 | 0.00 | 0.00 | 62 | 1009.8 |
| 20260506024608 | 69 | 190 | 4.0 | 15.0 | 0.00 | 0.00 | 0.00 | 61 | 1009.8 |
| 20260506023102 | 69 | 0 | 4.0 | 12.0 | 0.00 | 0.00 | 0.00 | 59 | 1009.9 |
| 20260506021559 | 70 | 200 | 5.0 | 13.0 | 0.00 | 0.00 | 0.00 | 58 | 1010.0 |
| 20260506020100 | 70 | 221 | 3.0 | 19.0 | 0.00 | 0.00 | 0.00 | 57 | 1009.9 |
| 20260506014555 | 70 | 233 | 4.0 | 13.0 | 0.00 | 0.00 | 0.00 | 56 | 1009.8 |
| 20260506013101 | 71 | 213 | 4.0 | 11.0 | 0.00 | 0.00 | 0.00 | 55 | 1009.5 |
| 20260506011621 | 72 | 202 | 4.0 | 12.0 | 0.00 | 0.00 | 0.00 | 54 | 1009.5 |
| 20260506010115 | 73 | 217 | 5.0 | 14.0 | 0.00 | 0.00 | 0.00 | 53 | 1009.4 |
| 20260506004554 | 73 | 269 | 7.0 | 15.0 | 0.00 | 0.00 | 0.00 | 52 | 1009.4 |
| 20260506003057 | 74 | 161 | 6.0 | 17.0 | 0.00 | 0.00 | 0.00 | 50 | 1009.3 |
| 20260506001601 | 75 | 249 | 5.0 | 13.0 | 0.00 | 0.00 | 0.00 | 48 | 1009.2 |
| 20260506000100 | 75 | 182 | 3.0 | 13.0 | 0.00 | 0.00 | 0.00 | 46 | 1009.0 |
| 20260505234556 | 76 | 162 | 3.0 | 15.0 | 0.00 | 0.00 | 0.00 | 43 | 1008.8 |
| 20260505233056 | 78 | 196 | 3.0 | 17.0 | 0.00 | 0.00 | 0.00 | 40 | 1008.7 |
| 20260505231557 | 79 | 202 | 5.0 | 19.0 | 0.00 | 0.00 | 0.00 | 38 | 1008.7 |
| 20260505224558 | 81 | 201 | 9.0 | 18.0 | 0.00 | 0.00 | 0.00 | 36 | 1008.2 |
| 20260505223100 | 81 | 232 | 6.0 | 25.0 | 0.00 | 0.00 | 0.00 | 35 | 1008.0 |
| 20260505221604 | 82 | 290 | 4.0 | 16.0 | 0.00 | 0.00 | 0.00 | 34 | 1007.8 |
| 20260505220108 | 82 | 219 | 5.0 | 21.0 | 0.00 | 0.00 | 0.00 | 34 | 1007.8 |
| 20260505214602 | 83 | 222 | 7.0 | 22.0 | 0.00 | 0.00 | 0.00 | 32 | 1007.8 |
| 20260505213057 | 83 | 240 | 5.0 | 21.0 | 0.00 | 0.00 | 0.00 | 31 | 1007.7 |
| 20260505211602 | 83 | 100 | 7.0 | 20.0 | 0.00 | 0.00 | 0.00 | 31 | 1007.5 |
| 20260505210103 | 83 | 99 | 6.0 | 28.0 | 0.00 | 0.00 | 0.00 | 32 | 1007.2 |
| 20260505204612 | 84 | 286 | 6.0 | 21.0 | 0.00 | 0.00 | 0.00 | 31 | 1007.3 |
| 20260505203052 | 84 | 188 | 8.0 | 21.0 | 0.00 | 0.00 | 0.00 | 31 | 1007.5 |
| 20260505201553 | 84 | 260 | 4.0 | 26.0 | 0.00 | 0.00 | 0.00 | 33 | 1007.6 |
| 20260505200054 | 83 | 226 | 10.0 | 27.0 | 0.00 | 0.00 | 0.00 | 32 | 1007.5 |
| 20260505194600 | 84 | 205 | 7.0 | 20.0 | 0.00 | 0.00 | 0.00 | 33 | 1007.6 |
| 20260505193054 | 84 | 256 | 9.0 | 21.0 | 0.00 | 0.00 | 0.00 | 34 | 1007.9 |
| 20260505191554 | 84 | 179 | 7.0 | 22.0 | 0.00 | 0.00 | 0.00 | 32 | 1007.9 |
| 20260505190056 | 84 | 248 | 7.0 | 23.0 | 0.00 | 0.00 | 0.00 | 33 | 1008.3 |
| 20260505184555 | 83 | 253 | 9.0 | 21.0 | 0.00 | 0.00 | 0.00 | 34 | 1008.4 |
| 20260505183057 | 84 | 190 | 5.0 | 19.0 | 0.00 | 0.00 | 0.00 | 36 | 1008.3 |
| 20260505181555 | 84 | 170 | 5.0 | 16.0 | 0.00 | 0.00 | 0.00 | 34 | 1008.7 |
| 20260505180055 | 83 | 326 | 5.0 | 16.0 | 0.00 | 0.00 | 0.00 | 38 | 1008.8 |
| 20260505174557 | 83 | 227 | 4.0 | 17.0 | 0.00 | 0.00 | 0.00 | 36 | 1009.1 |
| 20260505173053 | 82 | 0 | 3.0 | 14.0 | 0.00 | 0.00 | 0.00 | 40 | 1009.0 |
| 20260505171600 | 83 | 206 | 3.0 | 13.0 | 0.00 | 0.00 | 0.00 | 37 | 1009.4 |
| 20260505170055 | 82 | 290 | 4.0 | 11.0 | 0.00 | 0.00 | 0.00 | 39 | 1009.4 |
| 20260505164602 | 81 | 217 | 3.0 | 15.0 | 0.00 | 0.00 | 0.00 | 39 | 1009.5 |
| 20260505163054 | 80 | 207 | 4.0 | 15.0 | 0.00 | 0.00 | 0.00 | 42 | 1009.5 |
| 20260505161557 | 81 | 195 | 1.0 | 12.0 | 0.00 | 0.00 | 0.00 | 41 | 1009.8 |